Tracking 20719 objects as of 26-May-2020
HD Live streaming from Space Station
objects crossing your sky now

FLOCK 2K 45

Track FLOCK 2K 45 now!
10-day predictions
FLOCK 2K 45 is classified as:


NORAD ID: 42856
Int'l Code: 2017-042AH
Perigee: 442.4 km
Apogee: 457.0 km
Inclination: 96.9 °
Period: 93.4 minutes
Semi major axis: 6820 km
RCS: Unknown
Launch date: July 14, 2017
Source: United States (US)
Launch site: TYURATAM MISSILE AND SPACE COMPLEX (TTMTR)
aabbcc
Your satellite tracking list
Your tracking list is empty




NASA's NSSDC Master Catalog

Two Line Element Set (TLE):
1 42856U 17042AH  20145.86432337  .00003837  00000-0  94124-4 0  9992
2 42856  96.8950  14.9720 0010692  63.8305 296.4042 15.41209384160472
Source of the keplerian elements: AFSPC